Regional Weather Roundup
Issued by NWS Sterling, VA

Home | Current Version | Previous Version | Graphics & Text | Print | Product List | Glossary On
Versions: 1 2 3 4 5 6 7 8 9 10 11 12 13 14 15 16 17 18 19 20 21 22 23 24 25 26 27 28 29 30 31 32 33 34 35 36 37 38 39 40 41 42 43 44 45 46 47 48 49 50
561
ASUS41 KLWX 270010
RWRLWX

REGIONAL WEATHER ROUNDUP
NATIONAL WEATHER SERVICE BALTIMORE MD/WASHINGTON DC
800 PM EDT TUE JUL 26 2016

Note: "FAIR" indicates few or no clouds below 12,000 feet
with no significant weather and/or obstructions to visibility.
 TC=TEMPERATURE CELSIUS

 * =Non NWS site. Station does not report precipitation (e.g. rain,
    snow, etc.), thunder, or fog.

DCZ001-MDZ009-015-VAZ040>042-051-053>054-270100-
WASHINGTON METRO

CITY           SKY/WX    TMP DP  RH WIND       PRES   REMARKS
WASHINGTON NAT MOCLDY    91  64  40 N7        29.92R HX  92
DULLES         MOCLDY    88  68  51 CALM      29.93R HX  91
ANDREWS AFB    PTCLDY    89  67  47 W2        29.92R HX  91
FT BELVOIR     MOCLDY    85  71  62 CALM      29.91S HX  90
QUANTICO       LGT RAIN  84  77  79 NW8       29.92S HX  94
COLLEGE PARK*  FAIR      82  72  69 CALM      29.91S
LEESBURG*      FAIR      86  75  70 SW3       29.94S HX  95
MANASSAS*      CLOUDY    90  70  51 N3        29.92S HX  95
GAITHERSBURG*  CLOUDY    81  68  65 CALM      29.97S

$$

MDZ006>007-011-014-270100-
BALTIMORE METRO

CITY           SKY/WX    TMP DP  RH WIND       PRES   REMARKS
BWI AIRPORT    MOCLDY    86  67  52 CALM      29.91R
MD SCIENCE CTR   N/A     90  66  45 MISG      29.91R HX  92
MARTIN STATE   PTCLDY    86  77  74 SE5       29.92R HX  97
ANNAPOLIS      PTCLDY    86  74  67 W3        29.91R HX  94
FORT MEADE*    CLEAR     79  73  83 CALM      29.94S

$$

MDZ012-015-019>023-270100-
MARYLAND EASTERN SHORE

CITY           SKY/WX    TMP DP  RH WIND       PRES   REMARKS
OCEAN CITY     CLEAR     81  73  76 CALM      29.93R
SALISBURY      PTCLDY    81  75  82 S3        29.93R
BAY BRIDGE AP* PTCLDY    88  73  62 CALM      29.91S HX  96
CAMBRIDGE*     PTCLDY    84  75  74 SW6       29.92R HX  92
EASTON*        MOCLDY    90  81  74 CALM      29.96R HX 108

$$

MDZ017>025-270100-
SOUTHERN MARYLAND

CITY           SKY/WX    TMP DP  RH WIND       PRES   REMARKS
PATUXENT RIVER MOCLDY    85  75  72 S5        29.91S HX  93
ST INIGOES     CLOUDY    85  75  72 SE5       29.91S HX  93
LEONARDTOWN*     N/A    N/A N/A N/A MISG        N/A

$$

MDZ003>005-270100-
NORTH CENTRAL MARYLAND

CITY           SKY/WX    TMP DP  RH WIND       PRES   REMARKS
FREDERICK*     CLEAR     86  73  66 VRB3      29.95R HX  93
HAGERSTOWN APT CLOUDY    89  66  46 CALM      29.94R HX  91

$$

MDZ501>502-270100-
WESTERN MARYLAND

CITY           SKY/WX    TMP DP  RH WIND       PRES   REMARKS
OAKLAND*       MOCLDY    72  64  78 CALM      30.11S
CUMBERLAND*    MOCLDY    86  64  48 W6        30.00R

$$

VAZ025>031-270100-
SHENANDOAH VALLEY

CITY           SKY/WX    TMP DP  RH WIND       PRES   REMARKS
WINCHESTER*    FAIR      84  70  61 SW3       29.95F
FRONT ROYAL*   FAIR      81  72  74 S6        29.96S
LURAY*         FAIR      77  77 100 CALM      29.99S
NEW MARKET*    CLOUDY   N/A N/A N/A SW5       29.98S
STAUNTON*      MOCLDY    73  71  93 CALM      30.03F
WAYNESBORO*    MOCLDY    75  72  89 CALM      30.03S

$$

WVZ021-048>050-054>055-270100-
EASTERN WEST VIRGINIA PANHANDLE

CITY           SKY/WX    TMP DP  RH WIND       PRES   REMARKS
MARTINSBURG    FAIR      86  66  51 SW7       29.93R
PETERSBURG*    FAIR      82  73  76 CALM      29.99R

$$

VAZ036>039-050-270100-
CENTRAL FOOTHILLS

CITY           SKY/WX    TMP DP  RH WIND       PRES   REMARKS
CHARLOTTESVILL LGT RAIN  83  73  72 NW6       29.95R
CULPEPER*      MOCLDY    79  77  94 W5        29.96S
ORANGE*        TSTM      77  77 100 NE10G17   29.97R
GORDONSVILLE*  CLOUDY    83  74  75 NE15      29.94R HX  90
WARRENTON*     DRIZZLE   80  74  83 CALM      29.94F

$$

VAZ055>057-270100-
NORTH AND CENTRAL PIEDMONT

CITY           SKY/WX    TMP DP  RH WIND       PRES   REMARKS
FREDERICKSBRG*   N/A     88  77  70 CALM      29.91S HX  99
STAFFORD*      LGT RAIN  83  74  72 N6        29.97S HX  90

$$

NCZ024-NYZ072-PAZ021-071-VAZ022-071-270100-
OTHER REGIONAL OBSERVATIONS

CITY           SKY/WX    TMP DP  RH WIND       PRES   REMARKS
NEW YORK CITY  CLEAR     87  61  41 MISG      29.90R
PHILADELPHIA   MOCLDY    88  69  53 SW13      29.91R HX  92
PITTSBURGH     CLOUDY    82  57  42 NE8       30.00R
ROANOKE        FAIR      90  70  51 CALM      29.99R HX  95
RICHMOND       TSTM      75  73  93 N6        29.95R FOG
RALEIGH        MOCLDY    89  76  65 S7        29.93S THUNDER HX 100

$$

ANZ530>537-270100-
MARINE OBSERVATIONS

STATION/POSITION TIME  TEMP    WIND        PRES
                       AIR SEA DIR/SP/G
                 (UTC) (F)     (DEG/KT/KT) (MB)
THOMAS PT LIGHT  0000   88 85  260/  3/  3 1014.4R
BALT KEY BRIDGE  2330   89     240/  7/  8   N/A
COVE POINT       2330   86     210/  7/  8   N/A
LEWISETTA        2330   87 89  200/  6/  7   N/A
SOLOMONS ISLAND  2330   86 86  200/  5/  6   N/A
PINEY POINT      2330          190/  8/  9   N/A

$$





USA.gov is the U.S. government's official web portal to all federal, state and local government web resources and services.